Weather History for KPNS - March, 2013

Change the Weather History Date:

Friday, March 8, 2013

  Actual Average Record
Temperature  
Mean Temperature 57 °F 59 °F  
Max Temperature 73 °F 68 °F 85 °F (1951)
Min Temperature 40 °F 50 °F 27 °F (1996)
Degree Days  
Heating Degree Days 8 7  
Month to date heating degree days 112 60  
Since 1 July heating degree days 993 1368  
Cooling Degree Days 0 1  
Month to date cooling degree days 0 7  
Year to date cooling degree days 40 21  
Growing Degree Days 6 (Base 50)    
Moisture  
Dew Point 38 °F    
Average Humidity 54    
Maximum Humidity 83    
Minimum Humidity 24    
Precipitation  
Precipitation 0.00 in 0.19 in 3.12 in (1998)
Month to date precipitation T 1.60  
Year to date precipitation 14.27 11.29  
Snow  
Snow 0.00 in 0.00 in - ()
Month to date snowfall 0.0 0.0  
Since 1 July snowfall 0.0 0.0  
Snow Depth 0.00 in    
Sea Level Pressure  
Sea Level Pressure 30.24 in    
Wind  
Wind Speed 4 mph (North)    
Max Wind Speed 13 mph    
Max Gust Speed 20 mph    
Visibility 10 miles    
Events      
T = Trace of Precipitation, MM = Missing Value Source: NWS Daily Summary

Daily Weather History Graph

Daily Weather History Graph

Search for Another Location

Airport or City:

Trip Planner

Search our weather history database for the weather conditions in past years. The results will help you decide how hot, cold, wet, or windy it might be!

Date:

Astronomy

Mar. 08, 2013 Rise Set
Actual Time 6:06 AM CST 5:52 PM CST
Civil Twilight 5:42 AM CST 6:16 PM CST
Nautical Twilight 5:14 AM CST 6:44 PM CST
Astronomical Twilight 4:46 AM CST 7:12 PM CST
Moon 3:39 AM CST (3/8) 2:57 PM CST (3/8)
Length of Visible Light 12h 33m
Length of Day
11h 45m
Waning Crescent, 11% of the Moon is Illuminated
Mar 8
Waning Crescent
Mar 11
New
Mar 19
First Quarter
Mar 27
Full
Apr 2
Last Quarter

Hourly Weather History & Observations

Time (CST) Temp. Windchill Dew Point Humidity Pressure Visibility Wind Dir Wind Speed Gust Speed Precip Events Conditions
12:53 AM 45.0 °F - 39.0 °F 80% 30.25 in 9.0 mi Calm Calm - N/A   Clear
1:53 AM 43.0 °F - 37.9 °F 82% 30.26 in 8.0 mi Calm Calm - N/A   Clear
2:53 AM 41.0 °F - 36.0 °F 82% 30.24 in 9.0 mi Calm Calm - N/A   Clear
3:53 AM 41.0 °F 38.0 °F 35.1 °F 79% 30.25 in 10.0 mi North 4.6 mph - N/A   Clear
4:53 AM 44.1 °F 40.8 °F 34.0 °F 68% 30.25 in 10.0 mi North 5.8 mph - N/A   Clear
5:53 AM 43.0 °F 39.5 °F 34.0 °F 71% 30.26 in 10.0 mi NNE 5.8 mph - N/A   Clear
6:53 AM 44.1 °F 42.5 °F 36.0 °F 73% 30.29 in 8.0 mi North 3.5 mph - N/A   Clear
7:53 AM 51.1 °F - 35.1 °F 54% 30.30 in 9.0 mi NNE 4.6 mph - N/A   Clear
8:53 AM 55.9 °F - 34.0 °F 44% 30.31 in 10.0 mi NE 6.9 mph - N/A   Clear
9:53 AM 61.0 °F - 34.0 °F 36% 30.31 in 10.0 mi North 6.9 mph - N/A   Clear
10:53 AM 63.0 °F - 33.1 °F 33% 30.30 in 10.0 mi East 5.8 mph - N/A   Clear
11:53 AM 66.0 °F - 33.1 °F 29% 30.27 in 10.0 mi NNW 9.2 mph - N/A   Clear
12:53 PM 70.0 °F - 32.0 °F 25% 30.24 in 10.0 mi NNE 6.9 mph - N/A   Clear
1:53 PM 70.0 °F - 32.0 °F 25% 30.22 in 10.0 mi Calm Calm - N/A   Clear
2:53 PM 72.0 °F - 32.0 °F 23% 30.19 in 10.0 mi Calm Calm - N/A   Clear
3:53 PM 68.0 °F - 41.0 °F 37% 30.20 in 10.0 mi South 9.2 mph - N/A   Clear
4:53 PM 63.0 °F - 41.0 °F 45% 30.20 in 10.0 mi SSW 10.4 mph - N/A   Clear
5:53 PM 61.0 °F - 42.1 °F 50% 30.21 in 10.0 mi WSW 6.9 mph - N/A   Clear
6:53 PM 59.0 °F - 44.1 °F 58% 30.22 in 10.0 mi West 5.8 mph - N/A   Clear
7:53 PM 57.0 °F - 45.0 °F 64% 30.22 in 10.0 mi SW 4.6 mph - N/A   Clear
8:53 PM 57.0 °F - 46.0 °F 67% 30.23 in 10.0 mi West 3.5 mph - N/A   Clear
9:53 PM 53.1 °F - 45.0 °F 74% 30.22 in 10.0 mi Calm Calm - N/A   Clear
10:53 PM 51.1 °F - 45.0 °F 80% 30.20 in 10.0 mi NNE 3.5 mph - N/A   Clear
11:53 PM 51.1 °F - 45.0 °F 80% 30.19 in 10.0 mi Calm Calm - N/A   Clear